Volver al catálogo

ORBVIEW 2

SEASTAR

ActivoCienciaSSO
NORAD 24883·PAYLOAD·🇺🇸 United States

Lanzado Aug 1, 1997 desde Vandenberg Space Force Base

Loading…

Próximos Pases (próximas 24 horas)

TLE

ActualizadoSource: Space-Track

Época: Sep 13, 2026, 22:55 UTC

1 24883U 97037A   26256.95493387  .00000144  00000-0  66404-4 0  9993
2 24883  98.8781  66.4854 0001618 199.1817 160.9307 14.35590389535481

Sigue ORBVIEW 2 en tiempo real con AllMySat

Download on the App Store